Weather History for Jaipur, India

Change the Weather History Date:

Friday, November 30, 2012

  Actual Average Record
Temperature  
Mean Temperature 64 °F -  
Max Temperature 76 °F - - ()
Min Temperature 52 °F - - ()
Degree Days  
Heating Degree Days 1    
Growing Degree Days 14 (Base 50)    
Moisture  
Dew Point 44 °F    
Average Humidity 45    
Maximum Humidity 74    
Minimum Humidity 18    
Precipitation  
Precipitation 0.00 in - - ()
Sea Level Pressure  
Sea Level Pressure 30.00 in    
Wind  
Wind Speed 3 mph ()    
Max Wind Speed 7 mph    
Max Gust Speed 18 mph    
Visibility 1.6 miles    
Events      
T = Trace of Precipitation, MM = Missing Value Source: Averaged Metar Reports

Daily Weather History Graph

Daily Weather History Graph

Search for Another Location

Airport:

Trip Planner

Search our weather history database for the weather conditions in past years. The results will help you decide how hot, cold, wet, or windy it might be!

Date:

Astronomy

Nov. 30, 2012 Rise Set
Actual Time 6:57 AM IST 5:33 PM IST
Civil Twilight 6:32 AM IST 5:58 PM IST
Nautical Twilight 6:03 AM IST 6:26 PM IST
Astronomical Twilight 5:35 AM IST 6:54 PM IST
Moon 7:03 PM IST (11/30) 8:09 AM IST (11/30)
Length of Visible Light 11h 25m
Length of Day
10h 35m
Full, 98% of the Moon is Illuminated
Nov 30
Full
Dec 6
Last Quarter
Dec 13
New
Dec 20
First Quarter
Dec 28
Full

Hourly Weather History & Observations

Time (IST) Temp. Dew Point Humidity Pressure Visibility Wind Dir Wind Speed Gust Speed Precip Events Conditions
12:00 AM 68.0 °F 48.2 °F 49% 29.98 in 1.6 mi Variable 6.9 mph - N/A   Smoke
1:00 AM 68.0 °F 42.8 °F 40% 29.95 in 1.6 mi Variable 6.9 mph - N/A   Smoke
2:00 AM 66.2 °F 42.8 °F 43% 29.98 in 1.6 mi Variable 5.8 mph - N/A   Smoke
3:00 AM 60.8 °F 42.8 °F 52% 29.98 in 1.6 mi Calm Calm - N/A   Smoke
4:00 AM 57.2 °F 42.8 °F 59% 29.98 in 1.6 mi Calm Calm - N/A   Smoke
5:30 AM 53.6 °F 44.6 °F 72% 29.98 in 1.6 mi Calm Calm - N/A   Smoke
6:00 AM 53.6 °F 44.6 °F 72% 30.01 in 1.6 mi Calm Calm - N/A   Smoke
7:00 AM 55.4 °F 46.4 °F 72% 30.01 in 1.2 mi Calm Calm - N/A   Smoke
8:00 AM 55.4 °F 46.4 °F 72% 30.04 in 1.2 mi Calm Calm - N/A   Unknown
8:30 AM 61 °F 51 °F 60% 30.03 in 1 mi South 1.2 mph - -   Smoke
10:00 AM 66.2 °F 48.2 °F 52% 30.09 in 0.9 mi Variable 2.3 mph - N/A   Smoke
11:00 AM 71.6 °F 48.2 °F 43% 30.06 in 1.2 mi Variable 2.3 mph - N/A   Smoke
11:30 AM 71 °F 47 °F 32% 30.02 in 1 mi NE 2.3 mph - -   Smoke
12:00 PM 73.4 °F 42.8 °F 33% 30.04 in 1.2 mi Variable 5.8 mph - N/A   Smoke
1:00 PM 73.4 °F 42.8 °F 33% 30.01 in 2.5 mi Variable 5.8 mph - N/A   Haze
2:00 PM 75.2 °F 37.4 °F 25% 29.98 in 2.5 mi Variable 5.8 mph - N/A   Haze
2:30 PM 76 °F 41 °F 18% 29.91 in 1 mi NW 3.5 mph - -   Haze
2:30 PM 75.2 °F 37.4 °F 25% 29.98 in 2.5 mi Variable 3.5 mph 18.4 mph N/A   Haze
3:00 PM 75.2 °F 37.4 °F 25% 29.98 in 2.5 mi Variable 3.5 mph - N/A   Haze
4:00 PM 75.2 °F 35.6 °F 24% 29.98 in 2.5 mi Variable 3.5 mph - N/A   Haze
5:00 PM 73.4 °F 39.2 °F 29% 29.98 in 2.2 mi Variable 5.8 mph - N/A   Haze
5:30 PM 71 °F 38 °F 20% 29.92 in 1 mi NW 4.6 mph - -   Haze
5:30 PM 71.6 °F 39.2 °F 31% 29.98 in 2.2 mi Variable 6.9 mph - N/A   Haze
7:00 PM 68.0 °F 41.0 °F 37% 29.98 in 1.6 mi Variable 3.5 mph - N/A   Haze
7:30 PM 66.2 °F 42.8 °F 43% 30.01 in 1.6 mi NE 2.3 mph - N/A   Haze
8:00 PM 66.2 °F 46.4 °F 49% 30.01 in 1.6 mi NE 4.6 mph - N/A   Haze
8:30 PM 67 °F 45 °F 33% 29.98 in 1 mi NNE 4.6 mph - -   Haze
8:30 PM 64.4 °F 46.4 °F 52% 30.01 in 1.6 mi NNE 4.6 mph - N/A   Haze
9:00 PM 64.4 °F 46.4 °F 52% 30.01 in 1.6 mi Calm Calm - N/A   Haze
10:00 PM 59.0 °F 46.4 °F 63% 30.01 in 1.6 mi Calm Calm - N/A   Haze
11:00 PM 59.0 °F 46.4 °F 63% 30.01 in 1.6 mi Calm Calm - N/A   Haze
11:30 PM 57 °F 51 °F 74% 30.01 in 1 mi Calm Calm - -   Haze